| time (UTC) | temp C | wind direction | speed KPH | gust KPH | rain 1hr cm | rain 24hr cm | rain mn cm | humidity % | barometer mb |
| 20260902095925 | 28 | 208 | 1.6 | 9.7 | 0.00 | 0.00 | 0.00 | 82 | 1015.2 |
| 20260902095419 | 28 | 166 | 8.0 | 12.9 | 0.00 | 0.00 | 0.00 | 82 | 1015.4 |
| 20260902094918 | 28 | 169 | 4.8 | 12.9 | 0.00 | 0.00 | 0.00 | 82 | 1015.5 |
| 20260902094414 | 28 | 156 | 8.0 | 14.5 | 0.00 | 0.00 | 0.00 | 82 | 1015.4 |
| 20260902093909 | 28 | 190 | 11.3 | 12.9 | 0.00 | 0.00 | 0.00 | 82 | 1015.5 |
| 20260902093404 | 28 | 160 | 3.2 | 11.3 | 0.00 | 0.00 | 0.00 | 82 | 1015.6 |
| 20260902092903 | 28 | 180 | 6.4 | 17.7 | 0.00 | 0.00 | 0.00 | 81 | 1015.7 |
| 20260902092358 | 28 | 164 | 9.7 | 14.5 | 0.00 | 0.00 | 0.00 | 81 | 1015.4 |
| 20260902091853 | 28 | 184 | 9.7 | 17.7 | 0.00 | 0.00 | 0.00 | 81 | 1015.5 |
| 20260902091348 | 28 | 160 | 6.4 | 9.7 | 0.00 | 0.00 | 0.00 | 81 | 1015.6 |
| 20260902090845 | 28 | 175 | 6.4 | 14.5 | 0.00 | 0.00 | 0.00 | 81 | 1015.4 |
| 20260902090344 | 28 | 187 | 6.4 | 12.9 | 0.00 | 0.00 | 0.00 | 81 | 1015.5 |
| 20260902085843 | 28 | 193 | 6.4 | 12.9 | 0.00 | 0.00 | 0.00 | 81 | 1015.3 |
| 20260902085338 | 28 | 160 | 8.0 | 17.7 | 0.00 | 0.00 | 0.00 | 81 | 1015.5 |
| 20260902084834 | 28 | 245 | 4.8 | 9.7 | 0.00 | 0.00 | 0.00 | 81 | 1015.4 |
| 20260902084325 | 28 | 184 | 9.7 | 12.9 | 0.00 | 0.00 | 0.00 | 81 | 1015.4 |
| 20260902083820 | 28 | 169 | 6.4 | 14.5 | 0.00 | 0.00 | 0.00 | 81 | 1015.5 |
| 20260902083320 | 28 | 178 | 6.4 | 14.5 | 0.00 | 0.00 | 0.00 | 80 | 1015.3 |
| 20260902082815 | 28 | 164 | 9.7 | 17.7 | 0.00 | 0.00 | 0.00 | 80 | 1015.4 |
| 20260902082311 | 28 | 182 | 6.4 | 12.9 | 0.00 | 0.00 | 0.00 | 80 | 1015.4 |
| 20260902081807 | 28 | 214 | 8.0 | 14.5 | 0.00 | 0.00 | 0.00 | 80 | 1015.4 |
| 20260902081303 | 28 | 173 | 3.2 | 12.9 | 0.00 | 0.00 | 0.00 | 80 | 1015.4 |
| 20260902080757 | 28 | 184 | 8.0 | 19.3 | 0.00 | 0.00 | 0.00 | 80 | 1015.5 |
| 20260902080255 | 28 | 186 | 6.4 | 14.5 | 0.00 | 0.00 | 0.00 | 80 | 1015.3 |
| 20260902075753 | 28 | 166 | 8.0 | 17.7 | 0.00 | 0.00 | 0.00 | 80 | 1015.5 |
| 20260902075249 | 28 | 167 | 8.0 | 14.5 | 0.00 | 0.00 | 0.00 | 79 | 1015.7 |
| 20260902074744 | 28 | 170 | 12.9 | 14.5 | 0.00 | 0.00 | 0.00 | 79 | 1015.6 |
| 20260902074239 | 28 | 198 | 6.4 | 11.3 | 0.00 | 0.00 | 0.00 | 79 | 1015.8 |
| 20260902073735 | 28 | 175 | 8.0 | 17.7 | 0.00 | 0.00 | 0.00 | 79 | 1015.7 |
| 20260902073230 | 28 | 160 | 8.0 | 17.7 | 0.00 | 0.00 | 0.00 | 79 | 1015.9 |
| 20260902072726 | 28 | 164 | 6.4 | 14.5 | 0.00 | 0.00 | 0.00 | 79 | 1016.0 |
| 20260902072222 | 28 | 185 | 3.2 | 9.7 | 0.00 | 0.00 | 0.00 | 79 | 1015.8 |
| 20260902071719 | 28 | 151 | 11.3 | 20.9 | 0.00 | 0.00 | 0.00 | 79 | 1016.1 |
| 20260902071213 | 28 | 189 | 6.4 | 17.7 | 0.00 | 0.00 | 0.00 | 79 | 1015.9 |
| 20260902070710 | 28 | 186 | 9.7 | 12.9 | 0.00 | 0.00 | 0.00 | 79 | 1016.0 |
| 20260902070209 | 28 | 171 | 9.7 | 17.7 | 0.00 | 0.00 | 0.00 | 79 | 1016.1 |
| 20260902065708 | 28 | 216 | 11.3 | 14.5 | 0.00 | 0.00 | 0.00 | 79 | 1016.1 |
| 20260902065204 | 28 | 173 | 12.9 | 20.9 | 0.00 | 0.00 | 0.00 | 79 | 1016.1 |
| 20260902064659 | 28 | 170 | 11.3 | 19.3 | 0.00 | 0.00 | 0.00 | 79 | 1016.2 |
| 20260902064155 | 28 | 176 | 6.4 | 14.5 | 0.00 | 0.00 | 0.00 | 79 | 1016.2 |
| 20260902063650 | 28 | 171 | 9.7 | 22.5 | 0.00 | 0.00 | 0.00 | 79 | 1016.4 |
| 20260902063144 | 28 | 162 | 12.9 | 17.7 | 0.00 | 0.00 | 0.00 | 79 | 1016.3 |
| 20260902062643 | 28 | 156 | 8.0 | 14.5 | 0.00 | 0.00 | 0.00 | 79 | 1016.2 |
| 20260902062138 | 28 | 165 | 11.3 | 14.5 | 0.00 | 0.00 | 0.00 | 79 | 1016.4 |
| 20260902061638 | 28 | 182 | 8.0 | 16.1 | 0.00 | 0.00 | 0.00 | 79 | 1016.2 |
| 20260902061134 | 28 | 174 | 6.4 | 12.9 | 0.00 | 0.00 | 0.00 | 79 | 1016.3 |
| 20260902060630 | 28 | 153 | 9.7 | 22.5 | 0.00 | 0.00 | 0.00 | 78 | 1016.2 |
| 20260902060126 | 28 | 155 | 12.9 | 19.3 | 0.00 | 0.00 | 0.00 | 78 | 1016.3 |
| 20260902055622 | 28 | 149 | 8.0 | 12.9 | 0.00 | 0.00 | 0.00 | 78 | 1016.3 |
| 20260902055117 | 28 | 171 | 8.0 | 22.5 | 0.00 | 0.00 | 0.00 | 78 | 1016.5 |
| 20260902054612 | 28 | 173 | 9.7 | 20.9 | 0.00 | 0.00 | 0.00 | 78 | 1016.4 |
| 20260902054108 | 28 | 175 | 9.7 | 22.5 | 0.00 | 0.00 | 0.00 | 78 | 1016.5 |
| 20260902053603 | 28 | 165 | 8.0 | 11.3 | 0.00 | 0.00 | 0.00 | 78 | 1016.4 |
| 20260902053103 | 28 | 166 | 8.0 | 24.1 | 0.00 | 0.00 | 0.00 | 78 | 1016.6 |
| 20260902052557 | 28 | 150 | 11.3 | 16.1 | 0.00 | 0.00 | 0.00 | 78 | 1016.5 |
| 20260902052053 | 28 | 165 | 8.0 | 14.5 | 0.00 | 0.00 | 0.00 | 78 | 1016.3 |
| 20260902051552 | 28 | 169 | 6.4 | 16.1 | 0.00 | 0.00 | 0.00 | 78 | 1016.4 |
| 20260902051051 | 29 | 179 | 6.4 | 20.9 | 0.00 | 0.00 | 0.00 | 78 | 1016.4 |
| 20260902050546 | 29 | 169 | 4.8 | 14.5 | 0.00 | 0.00 | 0.00 | 78 | 1016.3 |
| 20260902050042 | 29 | 180 | 6.4 | 12.9 | 0.00 | 0.00 | 0.00 | 78 | 1016.5 |
| 20260902045538 | 29 | 169 | 6.4 | 24.1 | 0.00 | 0.00 | 0.00 | 78 | 1016.6 |
| 20260902045033 | 29 | 172 | 14.5 | 20.9 | 0.00 | 0.00 | 0.00 | 78 | 1016.4 |
| 20260902044528 | 29 | 180 | 8.0 | 20.9 | 0.00 | 0.00 | 0.00 | 78 | 1016.4 |
| 20260902044023 | 29 | 133 | 17.7 | 19.3 | 0.00 | 0.00 | 0.00 | 77 | 1016.4 |
| 20260902043518 | 29 | 176 | 11.3 | 19.3 | 0.00 | 0.00 | 0.00 | 77 | 1016.5 |
| 20260902043013 | 29 | 148 | 11.3 | 12.9 | 0.00 | 0.00 | 0.00 | 77 | 1016.2 |
| 20260902042513 | 29 | 181 | 8.0 | 22.5 | 0.00 | 0.00 | 0.00 | 76 | 1016.5 |
| 20260902042008 | 29 | 148 | 6.4 | 14.5 | 0.00 | 0.00 | 0.00 | 76 | 1016.5 |
| 20260902041508 | 29 | 152 | 4.8 | 20.9 | 0.00 | 0.00 | 0.00 | 76 | 1016.3 |
| 20260902041002 | 29 | 147 | 11.3 | 19.3 | 0.00 | 0.00 | 0.00 | 76 | 1016.2 |
| 20260902040457 | 29 | 142 | 12.9 | 19.3 | 0.00 | 0.00 | 0.00 | 76 | 1016.2 |
| 20260902035956 | 29 | 132 | 16.1 | 27.4 | 0.00 | 0.00 | 0.00 | 76 | 1016.2 |
| 20260902035450 | 29 | 146 | 12.9 | 24.1 | 0.00 | 0.00 | 0.00 | 76 | 1016.0 |
| 20260902034945 | 29 | 154 | 9.7 | 20.9 | 0.00 | 0.00 | 0.00 | 76 | 1016.0 |
| 20260902034444 | 30 | 142 | 14.5 | 22.5 | 0.00 | 0.00 | 0.00 | 75 | 1016.0 |
| 20260902033944 | 30 | 138 | 9.7 | 24.1 | 0.00 | 0.00 | 0.00 | 75 | 1015.9 |
| 20260902033444 | 30 | 130 | 9.7 | 17.7 | 0.00 | 0.00 | 0.00 | 75 | 1015.9 |
| 20260902032943 | 30 | 152 | 16.1 | 24.1 | 0.00 | 0.00 | 0.00 | 74 | 1015.9 |
| 20260902032438 | 30 | 132 | 16.1 | 22.5 | 0.00 | 0.00 | 0.00 | 74 | 1015.7 |
| 20260902031932 | 30 | 192 | 6.4 | 19.3 | 0.00 | 0.00 | 0.00 | 73 | 1015.7 |
| 20260902031422 | 30 | 160 | 6.4 | 20.9 | 0.00 | 0.00 | 0.00 | 73 | 1015.7 |
| 20260902030918 | 30 | 156 | 6.4 | 24.1 | 0.00 | 0.00 | 0.00 | 72 | 1015.5 |
| 20260902030413 | 30 | 140 | 24.1 | 30.6 | 0.00 | 0.00 | 0.00 | 72 | 1015.3 |
| 20260902025911 | 30 | 157 | 9.7 | 14.5 | 0.00 | 0.00 | 0.00 | 71 | 1015.3 |
| 20260902025402 | 30 | 156 | 9.7 | 20.9 | 0.00 | 0.00 | 0.00 | 71 | 1015.0 |
| 20260902024901 | 30 | 172 | 11.3 | 20.9 | 0.00 | 0.00 | 0.00 | 70 | 1015.0 |
| 20260902024352 | 30 | 144 | 6.4 | 19.3 | 0.00 | 0.00 | 0.00 | 70 | 1014.7 |
| 20260902023847 | 30 | 157 | 17.7 | 25.7 | 0.00 | 0.00 | 0.00 | 70 | 1014.6 |
| 20260902023342 | 31 | 141 | 9.7 | 20.9 | 0.00 | 0.00 | 0.00 | 69 | 1014.6 |
| 20260902022841 | 31 | 148 | 19.3 | 22.5 | 0.00 | 0.00 | 0.00 | 68 | 1014.6 |
| 20260902022337 | 31 | 147 | 20.9 | 27.4 | 0.00 | 0.00 | 0.00 | 67 | 1014.4 |
| 20260902021833 | 31 | 160 | 19.3 | 27.4 | 0.00 | 0.00 | 0.00 | 66 | 1014.3 |
| 20260902021327 | 31 | 156 | 22.5 | 30.6 | 0.00 | 0.00 | 0.00 | 65 | 1014.2 |
| 20260902020823 | 31 | 141 | 16.1 | 25.7 | 0.00 | 0.00 | 0.00 | 63 | 1014.1 |
| 20260902020319 | 31 | 129 | 12.9 | 24.1 | 0.00 | 0.00 | 0.00 | 62 | 1014.0 |
| 20260902015814 | 31 | 143 | 9.7 | 20.9 | 0.00 | 0.00 | 0.00 | 62 | 1014.1 |
| 20260902015310 | 32 | 150 | 17.7 | 20.9 | 0.00 | 0.00 | 0.00 | 61 | 1013.9 |
| 20260902014806 | 32 | 153 | 16.1 | 24.1 | 0.00 | 0.00 | 0.00 | 60 | 1013.9 |
| 20260902014302 | 32 | 171 | 11.3 | 17.7 | 0.00 | 0.00 | 0.00 | 59 | 1013.9 |
| 20260902013801 | 32 | 139 | 19.3 | 22.5 | 0.00 | 0.00 | 0.00 | 58 | 1013.7 |
| 20260902013256 | 32 | 173 | 11.3 | 19.3 | 0.00 | 0.00 | 0.00 | 57 | 1013.6 |
| 20260902012751 | 32 | 157 | 12.9 | 19.3 | 0.00 | 0.00 | 0.00 | 56 | 1013.7 |
| 20260902012247 | 33 | 156 | 12.9 | 16.1 | 0.00 | 0.00 | 0.00 | 54 | 1013.4 |
| 20260902011743 | 33 | 134 | 11.3 | 24.1 | 0.00 | 0.00 | 0.00 | 53 | 1013.4 |
| 20260902011242 | 33 | 148 | 8.0 | 22.5 | 0.00 | 0.00 | 0.00 | 53 | 1013.3 |
| 20260902010736 | 33 | 152 | 12.9 | 19.3 | 0.00 | 0.00 | 0.00 | 52 | 1013.0 |
| 20260902010232 | 33 | 159 | 11.3 | 17.7 | 0.00 | 0.00 | 0.00 | 52 | 1013.2 |
| 20260902005730 | 33 | 150 | 16.1 | 25.7 | 0.00 | 0.00 | 0.00 | 51 | 1012.9 |
| 20260902005226 | 33 | 141 | 14.5 | 19.3 | 0.00 | 0.00 | 0.00 | 50 | 1013.0 |
| 20260902004725 | 34 | 155 | 12.9 | 27.4 | 0.00 | 0.00 | 0.00 | 48 | 1013.1 |
| 20260902004221 | 34 | 154 | 8.0 | 17.7 | 0.00 | 0.00 | 0.00 | 47 | 1013.0 |
| 20260902003715 | 34 | 147 | 9.7 | 16.1 | 0.00 | 0.00 | 0.00 | 46 | 1012.8 |
| 20260902003211 | 35 | 133 | 14.5 | 24.1 | 0.00 | 0.00 | 0.00 | 45 | 1012.7 |
| 20260902002707 | 35 | 156 | 12.9 | 20.9 | 0.00 | 0.00 | 0.00 | 44 | 1012.8 |
| 20260902002206 | 35 | 178 | 9.7 | 20.9 | 0.00 | 0.00 | 0.00 | 43 | 1012.6 |
| 20260902001702 | 35 | 176 | 8.0 | 17.7 | 0.00 | 0.00 | 0.00 | 43 | 1012.5 |
| 20260902001201 | 35 | 135 | 17.7 | 25.7 | 0.00 | 0.00 | 0.00 | 42 | 1012.6 |
| 20260902000657 | 35 | 165 | 11.3 | 17.7 | 0.00 | 0.00 | 0.00 | 41 | 1012.6 |
| 20260902000152 | 35 | 187 | 9.7 | 22.5 | 0.00 | 0.00 | 0.00 | 42 | 1012.4 |
| 20260901235646 | 35 | 154 | 9.7 | 20.9 | 0.00 | 0.00 | 0.00 | 42 | 1012.5 |
| 20260901235141 | 36 | 141 | 17.7 | 29.0 | 0.00 | 0.00 | 0.00 | 41 | 1012.3 |
| 20260901234640 | 36 | 134 | 17.7 | 24.1 | 0.00 | 0.00 | 0.00 | 40 | 1012.4 |
| 20260901234136 | 36 | 135 | 25.7 | 29.0 | 0.00 | 0.00 | 0.00 | 41 | 1012.4 |
| 20260901233630 | 36 | 139 | 16.1 | 24.1 | 0.00 | 0.00 | 0.00 | 40 | 1012.2 |
| 20260901233126 | 36 | 151 | 17.7 | 30.6 | 0.00 | 0.00 | 0.00 | 40 | 1012.4 |
| 20260901232626 | 36 | 138 | 14.5 | 22.5 | 0.00 | 0.00 | 0.00 | 40 | 1012.3 |
| 20260901232121 | 36 | 154 | 9.7 | 22.5 | 0.00 | 0.00 | 0.00 | 40 | 1012.3 |
| 20260901231618 | 36 | 128 | 22.5 | 27.4 | 0.00 | 0.00 | 0.00 | 40 | 1012.2 |
| 20260901231114 | 37 | 137 | 12.9 | 19.3 | 0.00 | 0.00 | 0.00 | 40 | 1012.2 |
| 20260901230609 | 37 | 175 | 6.4 | 19.3 | 0.00 | 0.00 | 0.00 | 40 | 1012.2 |
| 20260901230104 | 37 | 172 | 12.9 | 22.5 | 0.00 | 0.00 | 0.00 | 40 | 1011.9 |
| 20260901225559 | 37 | 157 | 11.3 | 27.4 | 0.00 | 0.00 | 0.00 | 39 | 1011.9 |
| 20260901225058 | 37 | 162 | 6.4 | 20.9 | 0.00 | 0.00 | 0.00 | 38 | 1012.0 |
| 20260901224554 | 37 | 126 | 9.7 | 24.1 | 0.00 | 0.00 | 0.00 | 39 | 1012.0 |
| 20260901224050 | 37 | 151 | 14.5 | 22.5 | 0.00 | 0.00 | 0.00 | 39 | 1012.0 |
| 20260901223546 | 37 | 128 | 19.3 | 25.7 | 0.00 | 0.00 | 0.00 | 38 | 1011.9 |
| 20260901223041 | 37 | 140 | 17.7 | 29.0 | 0.00 | 0.00 | 0.00 | 37 | 1011.9 |
| 20260901222537 | 38 | 140 | 12.9 | 20.9 | 0.00 | 0.00 | 0.00 | 37 | 1011.9 |
| 20260901222032 | 38 | 157 | 9.7 | 17.7 | 0.00 | 0.00 | 0.00 | 35 | 1012.1 |
| 20260901221529 | 37 | 191 | 6.4 | 22.5 | 0.00 | 0.00 | 0.00 | 37 | 1012.1 |
| 20260901221023 | 37 | 156 | 11.3 | 17.7 | 0.00 | 0.00 | 0.00 | 36 | 1012.1 |
| 20260901220518 | 38 | 152 | 12.9 | 22.5 | 0.00 | 0.00 | 0.00 | 35 | 1012.1 |
| 20260901220016 | 38 | 205 | 4.8 | 16.1 | 0.00 | 0.00 | 0.00 | 35 | 1012.1 |
| 20260901215514 | 38 | 135 | 11.3 | 20.9 | 0.00 | 0.00 | 0.00 | 35 | 1012.0 |
| 20260901215009 | 38 | 188 | 6.4 | 19.3 | 0.00 | 0.00 | 0.00 | 34 | 1012.2 |
| 20260901214508 | 38 | 125 | 11.3 | 14.5 | 0.00 | 0.00 | 0.00 | 33 | 1012.0 |
| 20260901214003 | 38 | 187 | 12.9 | 16.1 | 0.00 | 0.00 | 0.00 | 34 | 1012.2 |
| 20260901213456 | 38 | 169 | 6.4 | 8.0 | 0.00 | 0.00 | 0.00 | 34 | 1012.3 |
| 20260901212956 | 38 | 141 | 11.3 | 11.3 | 0.00 | 0.00 | 0.00 | 33 | 1012.4 |
| 20260901212451 | 38 | 148 | 11.3 | 19.3 | 0.00 | 0.00 | 0.00 | 33 | 1012.4 |
| 20260901211948 | 38 | 151 | 6.4 | 20.9 | 0.00 | 0.00 | 0.00 | 32 | 1012.4 |
| 20260901211443 | 38 | 138 | 16.1 | 22.5 | 0.00 | 0.00 | 0.00 | 33 | 1012.5 |
| 20260901210939 | 38 | 149 | 11.3 | 19.3 | 0.00 | 0.00 | 0.00 | 34 | 1012.5 |
| 20260901210434 | 38 | 150 | 11.3 | 14.5 | 0.00 | 0.00 | 0.00 | 34 | 1012.5 |
| 20260901205930 | 38 | 171 | 8.0 | 9.7 | 0.00 | 0.00 | 0.00 | 34 | 1012.6 |
| 20260901205425 | 38 | 112 | 8.0 | 19.3 | 0.00 | 0.00 | 0.00 | 34 | 1012.7 |
| 20260901204920 | 38 | 136 | 17.7 | 20.9 | 0.00 | 0.00 | 0.00 | 35 | 1012.7 |
| 20260901204417 | 37 | 205 | 6.4 | 19.3 | 0.00 | 0.00 | 0.00 | 36 | 1013.0 |
| 20260901203916 | 37 | 160 | 14.5 | 20.9 | 0.00 | 0.00 | 0.00 | 36 | 1013.0 |
| 20260901203411 | 38 | 173 | 6.4 | 14.5 | 0.00 | 0.00 | 0.00 | 37 | 1013.1 |
| 20260901202906 | 38 | 190 | 9.7 | 19.3 | 0.00 | 0.00 | 0.00 | 37 | 1013.2 |
| 20260901202400 | 38 | 143 | 6.4 | 12.9 | 0.00 | 0.00 | 0.00 | 38 | 1013.1 |
| 20260901201857 | 38 | 137 | 19.3 | 20.9 | 0.00 | 0.00 | 0.00 | 38 | 1013.4 |
| 20260901201356 | 38 | 149 | 12.9 | 27.4 | 0.00 | 0.00 | 0.00 | 38 | 1013.3 |
| 20260901200850 | 38 | 160 | 9.7 | 16.1 | 0.00 | 0.00 | 0.00 | 38 | 1013.5 |
| 20260901200345 | 38 | 181 | 14.5 | 22.5 | 0.00 | 0.00 | 0.00 | 38 | 1013.5 |
| 20260901195844 | 38 | 140 | 14.5 | 20.9 | 0.00 | 0.00 | 0.00 | 38 | 1013.6 |
| 20260901195337 | 37 | 192 | 11.3 | 14.5 | 0.00 | 0.00 | 0.00 | 38 | 1013.5 |
| 20260901194833 | 37 | 171 | 4.8 | 8.0 | 0.00 | 0.00 | 0.00 | 38 | 1013.9 |
| 20260901194327 | 37 | 184 | 9.7 | 16.1 | 0.00 | 0.00 | 0.00 | 39 | 1013.8 |
| 20260901193824 | 37 | 147 | 9.7 | 19.3 | 0.00 | 0.00 | 0.00 | 39 | 1014.1 |
| 20260901193322 | 37 | 149 | 8.0 | 16.1 | 0.00 | 0.00 | 0.00 | 39 | 1014.0 |
| 20260901192817 | 37 | 142 | 14.5 | 20.9 | 0.00 | 0.00 | 0.00 | 38 | 1014.1 |
| 20260901192313 | 37 | 168 | 6.4 | 12.9 | 0.00 | 0.00 | 0.00 | 39 | 1014.0 |
| 20260901191808 | 37 | 208 | 6.4 | 16.1 | 0.00 | 0.00 | 0.00 | 37 | 1014.1 |
| 20260901191304 | 38 | 200 | 12.9 | 12.9 | 0.00 | 0.00 | 0.00 | 39 | 1014.3 |
| 20260901190800 | 38 | 189 | 4.8 | 17.7 | 0.00 | 0.00 | 0.00 | 38 | 1014.4 |
| 20260901190254 | 37 | 168 | 8.0 | 11.3 | 0.00 | 0.00 | 0.00 | 41 | 1014.3 |
| 20260901185752 | 36 | 148 | 9.7 | 24.1 | 0.00 | 0.00 | 0.00 | 40 | 1014.7 |
| 20260901185252 | 36 | 133 | 16.1 | 16.1 | 0.00 | 0.00 | 0.00 | 43 | 1014.6 |
| 20260901184747 | 36 | 168 | 12.9 | 17.7 | 0.00 | 0.00 | 0.00 | 41 | 1015.0 |
| 20260901184242 | 36 | 178 | 8.0 | 14.5 | 0.00 | 0.00 | 0.00 | 43 | 1014.8 |
| 20260901183738 | 36 | 179 | 8.0 | 14.5 | 0.00 | 0.00 | 0.00 | 43 | 1014.8 |
| 20260901183237 | 36 | 166 | 11.3 | 16.1 | 0.00 | 0.00 | 0.00 | 44 | 1015.0 |
| 20260901182734 | 36 | 145 | 19.3 | 24.1 | 0.00 | 0.00 | 0.00 | 43 | 1015.0 |
| 20260901182232 | 36 | 169 | 4.8 | 8.0 | 0.00 | 0.00 | 0.00 | 43 | 1015.3 |
| 20260901181727 | 36 | 142 | 11.3 | 19.3 | 0.00 | 0.00 | 0.00 | 43 | 1015.2 |
| 20260901181222 | 36 | 159 | 14.5 | 16.1 | 0.00 | 0.00 | 0.00 | 43 | 1015.2 |
| 20260901180721 | 36 | 193 | 12.9 | 12.9 | 0.00 | 0.00 | 0.00 | 45 | 1015.3 |
| 20260901180220 | 35 | 151 | 16.1 | 24.1 | 0.00 | 0.00 | 0.00 | 46 | 1015.2 |
| 20260901175720 | 36 | 189 | 8.0 | 16.1 | 0.00 | 0.00 | 0.00 | 46 | 1015.6 |
| 20260901175215 | 35 | 141 | 11.3 | 22.5 | 0.00 | 0.00 | 0.00 | 46 | 1015.5 |
| 20260901174710 | 35 | 177 | 14.5 | 19.3 | 0.00 | 0.00 | 0.00 | 48 | 1015.6 |
| 20260901174206 | 35 | 151 | 9.7 | 24.1 | 0.00 | 0.00 | 0.00 | 47 | 1015.7 |
| 20260901173701 | 35 | 150 | 14.5 | 16.1 | 0.00 | 0.00 | 0.00 | 48 | 1015.8 |
| 20260901173156 | 35 | 133 | 17.7 | 20.9 | 0.00 | 0.00 | 0.00 | 48 | 1015.9 |
| 20260901172652 | 35 | 174 | 8.0 | 20.9 | 0.00 | 0.00 | 0.00 | 47 | 1015.9 |
| 20260901172149 | 35 | 181 | 9.7 | 14.5 | 0.00 | 0.00 | 0.00 | 48 | 1015.8 |
| 20260901171643 | 35 | 169 | 6.4 | 16.1 | 0.00 | 0.00 | 0.00 | 50 | 1015.9 |
| 20260901171142 | 35 | 143 | 16.1 | 19.3 | 0.00 | 0.00 | 0.00 | 48 | 1015.9 |
| 20260901170637 | 35 | 138 | 16.1 | 20.9 | 0.00 | 0.00 | 0.00 | 49 | 1016.0 |
| 20260901170132 | 34 | 167 | 16.1 | 20.9 | 0.00 | 0.00 | 0.00 | 51 | 1016.0 |
| 20260901165630 | 33 | 161 | 8.0 | 17.7 | 0.00 | 0.00 | 0.00 | 53 | 1016.1 |
| 20260901165126 | 33 | 187 | 8.0 | 19.3 | 0.00 | 0.00 | 0.00 | 52 | 1016.3 |
| 20260901164622 | 33 | 157 | 9.7 | 19.3 | 0.00 | 0.00 | 0.00 | 53 | 1016.3 |
| 20260901164117 | 33 | 169 | 11.3 | 16.1 | 0.00 | 0.00 | 0.00 | 57 | 1016.3 |
| 20260901163612 | 33 | 178 | 12.9 | 17.7 | 0.00 | 0.00 | 0.00 | 57 | 1016.2 |
| 20260901163111 | 33 | 175 | 6.4 | 19.3 | 0.00 | 0.00 | 0.00 | 59 | 1016.4 |
| 20260901162606 | 32 | 183 | 8.0 | 14.5 | 0.00 | 0.00 | 0.00 | 60 | 1016.2 |
| 20260901162100 | 33 | 145 | 12.9 | 14.5 | 0.00 | 0.00 | 0.00 | 60 | 1016.3 |
| 20260901161559 | 33 | 187 | 12.9 | 14.5 | 0.00 | 0.00 | 0.00 | 60 | 1016.2 |
| 20260901161059 | 32 | 160 | 8.0 | 11.3 | 0.00 | 0.00 | 0.00 | 61 | 1016.6 |
| 20260901160555 | 32 | 178 | 8.0 | 14.5 | 0.00 | 0.00 | 0.00 | 61 | 1016.4 |
| 20260901160050 | 32 | 194 | 9.7 | 16.1 | 0.00 | 0.00 | 0.00 | 61 | 1016.5 |
| 20260901155549 | 32 | 83 | 6.4 | 20.9 | 0.00 | 0.00 | 0.00 | 62 | 1016.5 |
| 20260901155044 | 32 | 166 | 8.0 | 17.7 | 0.00 | 0.00 | 0.00 | 62 | 1016.3 |
| 20260901154539 | 32 | 206 | 6.4 | 14.5 | 0.00 | 0.00 | 0.00 | 62 | 1016.4 |
| 20260901154034 | 32 | 187 | 8.0 | 12.9 | 0.00 | 0.00 | 0.00 | 63 | 1016.6 |
| 20260901153528 | 32 | 186 | 8.0 | 14.5 | 0.00 | 0.00 | 0.00 | 63 | 1016.6 |
| 20260901153022 | 31 | 185 | 6.4 | 14.5 | 0.00 | 0.00 | 0.00 | 65 | 1016.4 |
| 20260901152517 | 31 | 195 | 8.0 | 16.1 | 0.00 | 0.00 | 0.00 | 65 | 1016.4 |
| 20260901152016 | 31 | 166 | 8.0 | 17.7 | 0.00 | 0.00 | 0.00 | 66 | 1016.5 |
| 20260901151512 | 31 | 205 | 9.7 | 16.1 | 0.00 | 0.00 | 0.00 | 67 | 1016.4 |
| 20260901151011 | 30 | 188 | 8.0 | 16.1 | 0.00 | 0.00 | 0.00 | 68 | 1016.4 |
| 20260901150509 | 30 | 164 | 4.8 | 16.1 | 0.00 | 0.00 | 0.00 | 69 | 1016.4 |
| 20260901150008 | 30 | 186 | 9.7 | 16.1 | 0.00 | 0.00 | 0.00 | 69 | 1016.4 |
| 20260901145501 | 30 | 184 | 6.4 | 16.1 | 0.00 | 0.00 | 0.00 | 70 | 1016.5 |
| 20260901145001 | 30 | 179 | 6.4 | 14.5 | 0.00 | 0.00 | 0.00 | 71 | 1016.3 |
| 20260901144456 | 30 | 144 | 11.3 | 12.9 | 0.00 | 0.00 | 0.00 | 73 | 1016.4 |
| 20260901143951 | 30 | 184 | 3.2 | 14.5 | 0.00 | 0.00 | 0.00 | 73 | 1016.4 |
| 20260901143448 | 30 | 189 | 11.3 | 12.9 | 0.00 | 0.00 | 0.00 | 74 | 1016.4 |
| 20260901142944 | 30 | 204 | 8.0 | 14.5 | 0.00 | 0.00 | 0.00 | 75 | 1016.3 |
| 20260901142444 | 29 | 168 | 6.4 | 12.9 | 0.00 | 0.00 | 0.00 | 76 | 1016.4 |
| 20260901141938 | 29 | 170 | 6.4 | 12.9 | 0.00 | 0.00 | 0.00 | 76 | 1016.4 |
| 20260901141433 | 29 | 171 | 6.4 | 17.7 | 0.00 | 0.00 | 0.00 | 77 | 1016.4 |
| 20260901140928 | 28 | 174 | 8.0 | 9.7 | 0.00 | 0.00 | 0.00 | 77 | 1016.5 |
| 20260901140426 | 28 | 192 | 4.8 | 14.5 | 0.00 | 0.00 | 0.00 | 78 | 1016.3 |
| 20260901135926 | 28 | 190 | 11.3 | 12.9 | 0.00 | 0.00 | 0.00 | 78 | 1016.2 |
| 20260901135421 | 28 | 171 | 8.0 | 12.9 | 0.00 | 0.00 | 0.00 | 79 | 1016.1 |
| 20260901134917 | 28 | 146 | 11.3 | 16.1 | 0.00 | 0.00 | 0.00 | 79 | 1016.2 |
| 20260901134412 | 28 | 145 | 6.4 | 11.3 | 0.00 | 0.00 | 0.00 | 80 | 1016.2 |
| 20260901133912 | 28 | 182 | 6.4 | 9.7 | 0.00 | 0.00 | 0.00 | 81 | 1016.1 |
| 20260901133406 | 27 | 182 | 3.2 | 12.9 | 0.00 | 0.00 | 0.00 | 81 | 1016.1 |
| 20260901132905 | 27 | 157 | 4.8 | 12.9 | 0.00 | 0.00 | 0.00 | 82 | 1016.0 |
| 20260901132359 | 27 | 156 | 6.4 | 9.7 | 0.00 | 0.00 | 0.00 | 83 | 1015.9 |
| 20260901131853 | 27 | 185 | 8.0 | 11.3 | 0.00 | 0.00 | 0.00 | 83 | 1015.9 |
| 20260901131352 | 27 | 219 | 4.8 | 8.0 | 0.00 | 0.00 | 0.00 | 84 | 1015.8 |
| 20260901130848 | 27 | 185 | 3.2 | 6.4 | 0.00 | 0.00 | 0.00 | 84 | 1015.9 |
| 20260901130343 | 27 | 205 | 1.6 | 8.0 | 0.00 | 0.00 | 0.00 | 85 | 1015.6 |
| 20260901125840 | 27 | 139 | 6.4 | 8.0 | 0.00 | 0.00 | 0.00 | 85 | 1015.8 |
| 20260901125339 | 26 | 168 | 4.8 | 6.4 | 0.00 | 0.00 | 0.00 | 85 | 1015.8 |
| 20260901124835 | 26 | 185 | 4.8 | 8.0 | 0.00 | 0.00 | 0.00 | 86 | 1015.6 |
| 20260901124330 | 26 | 170 | 3.2 | 6.4 | 0.00 | 0.00 | 0.00 | 86 | 1015.6 |
| 20260901123829 | 26 | 189 | 6.4 | 6.4 | 0.00 | 0.00 | 0.00 | 86 | 1015.5 |
| 20260901123325 | 26 | 178 | 3.2 | 6.4 | 0.00 | 0.00 | 0.00 | 86 | 1015.4 |
| 20260901122823 | 26 | 174 | 4.8 | 6.4 | 0.00 | 0.00 | 0.00 | 86 | 1015.6 |
| 20260901122318 | 26 | 188 | 4.8 | 8.0 | 0.00 | 0.00 | 0.00 | 86 | 1015.7 |
| 20260901121817 | 26 | 183 | 4.8 | 8.0 | 0.00 | 0.00 | 0.00 | 86 | 1015.6 |
| 20260901121313 | 26 | 177 | 3.2 | 6.4 | 0.00 | 0.00 | 0.00 | 85 | 1015.7 |
| 20260901120813 | 26 | 147 | 4.8 | 6.4 | 0.00 | 0.00 | 0.00 | 85 | 1015.6 |
| 20260901120307 | 26 | 147 | 3.2 | 6.4 | 0.00 | 0.00 | 0.00 | 85 | 1015.4 |
| 20260901115803 | 26 | 172 | 4.8 | 8.0 | 0.00 | 0.00 | 0.00 | 85 | 1015.4 |
| 20260901115258 | 26 | 172 | 4.8 | 9.7 | 0.00 | 0.00 | 0.00 | 85 | 1015.5 |
| 20260901114755 | 26 | 165 | 3.2 | 9.7 | 0.00 | 0.00 | 0.00 | 85 | 1015.3 |
| 20260901114250 | 27 | 167 | 4.8 | 9.7 | 0.00 | 0.00 | 0.00 | 85 | 1015.4 |
| 20260901113749 | 27 | 151 | 6.4 | 11.3 | 0.00 | 0.00 | 0.00 | 85 | 1015.2 |
| 20260901113244 | 27 | 151 | 6.4 | 12.9 | 0.00 | 0.00 | 0.00 | 85 | 1015.3 |
| 20260901112743 | 27 | 170 | 6.4 | 9.7 | 0.00 | 0.00 | 0.00 | 84 | 1015.3 |
| 20260901112238 | 27 | 151 | 8.0 | 8.0 | 0.00 | 0.00 | 0.00 | 84 | 1015.3 |
| 20260901111733 | 27 | 195 | 6.4 | 9.7 | 0.00 | 0.00 | 0.00 | 84 | 1015.2 |
| 20260901111232 | 27 | 187 | 11.3 | 11.3 | 0.00 | 0.00 | 0.00 | 84 | 1015.4 |
| 20260901110726 | 27 | 177 | 6.4 | 9.7 | 0.00 | 0.00 | 0.00 | 84 | 1015.3 |
| 20260901110221 | 27 | 189 | 6.4 | 11.3 | 0.00 | 0.00 | 0.00 | 84 | 1015.2 |
| 20260901105718 | 27 | 188 | 4.8 | 9.7 | 0.00 | 0.00 | 0.00 | 83 | 1015.1 |
| 20260901105218 | 27 | 185 | 6.4 | 12.9 | 0.00 | 0.00 | 0.00 | 83 | 1015.3 |
| 20260901104714 | 27 | 197 | 4.8 | 8.0 | 0.00 | 0.00 | 0.00 | 83 | 1015.3 |
| 20260901104209 | 27 | 179 | 9.7 | 11.3 | 0.00 | 0.00 | 0.00 | 83 | 1015.2 |
| 20260901103708 | 27 | 207 | 4.8 | 11.3 | 0.00 | 0.00 | 0.00 | 83 | 1015.2 |
| 20260901103203 | 27 | 216 | 4.8 | 8.0 | 0.00 | 0.00 | 0.00 | 83 | 1015.3 |
| 20260901102658 | 27 | 181 | 8.0 | 12.9 | 0.00 | 0.00 | 0.00 | 82 | 1015.2 |
| 20260901102157 | 27 | 241 | 4.8 | 8.0 | 0.00 | 0.00 | 0.00 | 82 | 1015.3 |
| 20260901101653 | 27 | 184 | 9.7 | 14.5 | 0.00 | 0.00 | 0.00 | 82 | 1015.3 |
| 20260901101153 | 27 | 205 | 8.0 | 11.3 | 0.00 | 0.00 | 0.00 | 82 | 1015.4 |
| 20260901100647 | 27 | 212 | 3.2 | 11.3 | 0.00 | 0.00 | 0.00 | 82 | 1015.4 |